Weather History for Minneapolis Crystal, MN

Change the Weather History Date:

Tuesday, November 29, 2011

  Actual Average Record
Temperature  
Mean Temperature 29 °F -  
Max Temperature 39 °F 35 °F 60 °F (1998)
Min Temperature 19 °F 21 °F 7 °F (2007)
Degree Days  
Heating Degree Days 36    
Moisture  
Dew Point 13 °F    
Average Humidity 57    
Maximum Humidity 81    
Minimum Humidity 26    
Precipitation  
Precipitation 0.00 in - - ()
Sea Level Pressure  
Sea Level Pressure 30.28 in    
Wind  
Wind Speed 5 mph (NNW)    
Max Wind Speed 9 mph    
Max Gust Speed -    
Visibility 10 miles    
Events      
Averages and records for this station are not official NWS values.
T = Trace of Precipitation, MM = Missing Value Source: NWS Daily Summary

Daily Weather History Graph

Daily Weather History Graph

Search for Another Location

Airport:

Trip Planner

Search our weather history database for the weather conditions in past years. The results will help you decide how hot, cold, wet, or windy it might be!

Date:

Astronomy

Nov. 29, 2011 Rise Set
Actual Time 7:28 AM CST 4:34 PM CST
Civil Twilight 6:56 AM CST 5:07 PM CST
Nautical Twilight 6:19 AM CST 5:43 PM CST
Astronomical Twilight 5:44 AM CST 6:18 PM CST
Moon 11:11 AM CST (11/29) 9:33 PM CST (11/29)
Length of Visible Light 10h 11m
Length of Day
9h 05m
Waxing Crescent, 24% of the Moon is Illuminated
Nov 29
Waxing Crescent
Dec 2
First Quarter
Dec 10
Full
Dec 17
Last Quarter
Dec 24
New

Hourly Weather History & Observations

Time (CST) Temp. Windchill Dew Point Humidity Pressure Visibility Wind Dir Wind Speed Gust Speed Precip Events Conditions
1:53 AM 30.0 °F 23.2 °F 24.1 °F 79% 30.29 in 10.0 mi NNW 6.9 mph - N/A   Clear
2:53 AM 28.0 °F 21.7 °F 21.0 °F 75% 30.31 in 10.0 mi NNW 5.8 mph - N/A   Clear
3:53 AM 24.1 °F 16.0 °F 19.0 °F 81% 30.32 in 10.0 mi NW 6.9 mph - N/A   Clear
4:53 AM 25.0 °F 19.3 °F 17.1 °F 72% 30.33 in 10.0 mi North 4.6 mph - N/A   Clear
5:53 AM 24.1 °F 19.7 °F 15.1 °F 69% 30.33 in 10.0 mi NNW 3.5 mph - N/A   Clear
6:53 AM 23.0 °F 17.0 °F 12.9 °F 65% 30.34 in 10.0 mi NNW 4.6 mph - N/A   Clear
7:53 AM 21.9 °F 17.2 °F 12.0 °F 66% 30.36 in 10.0 mi NNW 3.5 mph - N/A   Clear
8:53 AM 27.0 °F 21.6 °F 15.1 °F 61% 30.38 in 10.0 mi North 4.6 mph - N/A   Clear
9:53 AM 30.9 °F 24.3 °F 16.0 °F 54% 30.39 in 10.0 mi North 6.9 mph - N/A   Clear
10:53 AM 34.0 °F 28.8 °F 15.1 °F 46% 30.38 in 10.0 mi NNE 5.8 mph - N/A   Clear
11:53 AM 36.0 °F 30.3 °F 10.9 °F 36% 30.34 in 10.0 mi NNW 6.9 mph - N/A   Clear
12:53 PM 37.0 °F - 9.0 °F 31% 30.29 in 10.0 mi Calm Calm - N/A   Clear
1:53 PM 39.9 °F 33.9 °F 7.0 °F 26% 30.26 in 10.0 mi NNW 9.2 mph - N/A   Clear
2:53 PM 39.0 °F 33.4 °F 7.0 °F 27% 30.26 in 10.0 mi NW 8.1 mph - N/A   Clear
3:53 PM 37.0 °F 30.4 °F 9.0 °F 31% 30.26 in 10.0 mi NW 9.2 mph - N/A   Clear
4:53 PM 33.1 °F 28.7 °F 10.9 °F 40% 30.24 in 10.0 mi WNW 4.6 mph - N/A   Clear
5:53 PM 28.0 °F - 12.0 °F 51% 30.22 in 10.0 mi Calm Calm - N/A   Clear
6:53 PM 24.1 °F - 12.0 °F 60% 30.22 in 10.0 mi Calm Calm - N/A   Clear
7:53 PM 23.0 °F - 12.0 °F 63% 30.20 in 10.0 mi Calm Calm - N/A   Clear
8:53 PM 21.0 °F - 12.0 °F 68% 30.19 in 10.0 mi Calm Calm - N/A   Clear
9:53 PM 21.0 °F - 12.9 °F 71% 30.16 in 10.0 mi Calm Calm - N/A   Clear
10:53 PM 19.0 °F - 12.0 °F 74% 30.15 in 10.0 mi Calm Calm - N/A   Clear
11:53 PM 19.0 °F 13.9 °F 12.0 °F 74% 30.11 in 10.0 mi South 3.5 mph - N/A   Clear